Location: Long Barn
(38.0930°N, 120.1344°W)
Time: 03:30:56
(UTC+00:00)

Hubble Space Telescope - Pass Details

Date: 30 January 2026
Orbit: 478 x 480 km, 28.5° (Epoch: 9 February)

Event Time Altitude Azimuth Distance (km) Brightness Sun altitude
Rises 03:03:03 0° 251° (WSW) 2,513 5.7 -20.3°
Reaches altitude 10° 03:06:02 10° 226° (SW) 1,635 3.9 -20.9°
Maximum altitude 03:08:08 14° 192° (SSW) 1,382 3.0 -21.3°
Enters shadow 03:09:15 13° 172° (S) 1,457 2.9 -21.5°
